Waarnemingen

Advertentie
Mijn weer
London/Heathrow Intl, Groot Brittannië (3772): temperatuur & dauwpunt: 07.11.2019 21:00:00 - 13.11.2019 21:00:00 (GMT)London/Heathrow Intl, Groot Brittannië (3772): windsnelheid & windstoten: 07.11.2019 21:00:00 - 13.11.2019 21:00:00 (GMT)London/Heathrow Intl, Groot Brittannië (3772): windrichting: 07.11.2019 21:00:00 - 13.11.2019 21:00:00 (GMT)London/Heathrow Intl, Groot Brittannië (3772): luchtdruk: 07.11.2019 21:00:00 - 13.11.2019 21:00:00 (GMT)London/Heathrow Intl, Groot Brittannië (3772): zicht: 07.11.2019 21:00:00 - 13.11.2019 21:00:00 (GMT)London/Heathrow Intl, Groot Brittannië (3772): Zonneschijnduur: 07.11.2019 21:00:00 - 13.11.2019 21:00:00 (GMT)London/Heathrow Intl, Groot Brittannië (3772): neerslag: 07.11.2019 21:00:00 - 13.11.2019 21:00:00 (GMT)
Datum & Tijd tt [°C] td [°C] ff [km/u] ff [kn] fx [km/u] fx [kn] dd ppp [hPa] vv [km] sd [min] rr [mm]
13.11.2019 21:00:00 6,1 4,9 21 11 - - O 991,3 30 0 -
13.11.2019 20:00:00 6,0 4,7 21 11 - - OZO 992,5 5 0 0,4
13.11.2019 19:00:00 6,1 3,7 18 10 - - OZO 993,8 10 0 0,0
13.11.2019 18:00:00 5,4 3,0 15 8 - - OZO 994,7 28 0 0,0
13.11.2019 17:00:00 7,0 2,9 13 7 - - ZO 995,7 30 0 0,0
13.11.2019 16:00:00 7,8 2,5 11 6 - - Z 996,7 10 0 0,0
13.11.2019 15:00:00 8,3 2,7 16 9 - - Z 997,8 40 0 0,0
13.11.2019 14:00:00 8,4 3,0 18 10 - - ZW 998,5 10 0 0,0
13.11.2019 13:00:00 8,3 2,8 9 5 - - ZW 999,1 40 30 0,0
13.11.2019 12:00:00 9,5 4,1 9 5 - - WZW 1000,0 40 60 0,0
13.11.2019 11:00:00 7,9 3,5 11 6 - - W 1001,3 30 60 0,0
13.11.2019 10:00:00 6,7 4,0 11 6 - - W 1001,8 10 42 0,0
13.11.2019 09:00:00 5,4 3,8 11 6 - - W 1002,2 10 6 0,0
13.11.2019 08:00:00 4,0 2,7 11 6 - - W 1002,0 10 0 0,0
13.11.2019 07:00:00 3,9 2,9 13 7 - - W 1002,3 30 0 0,0
13.11.2019 06:00:00 3,4 2,4 11 6 - - WZW 1001,8 10 0 0,0
13.11.2019 05:00:00 3,6 2,9 11 6 - - WZW 1001,8 10 0 0,0
13.11.2019 04:00:00 3,7 2,9 8 4 - - W 1001,6 10 0 0,0
13.11.2019 03:00:00 5,8 3,6 5 3 - - - 1001,3 10 0 0,0
13.11.2019 02:00:00 6,1 3,9 13 7 - - WNW 1001,3 35 0 0,0
13.11.2019 01:00:00 6,9 4,3 15 8 - - WNW 1001,2 10 0 0,0
13.11.2019 00:00:00 7,4 4,8 18 10 - - W 1000,9 10 - 0,0
12.11.2019 23:00:00 7,9 5,0 18 10 - - W 1000,4 40 0 0,0
12.11.2019 22:00:00 7,7 5,2 21 11 - - W 1000,0 10 0 0,0
12.11.2019 21:00:00 8,0 5,1 15 8 - - WNW 999,4 10 0 0,0
12.11.2019 20:00:00 7,7 5,6 13 7 - - W 999,0 40 0 0,0
12.11.2019 19:00:00 7,7 5,7 18 10 - - W 998,6 10 0 0,0
12.11.2019 18:00:00 7,8 5,2 21 11 - - W 998,0 40 0 0,0
12.11.2019 17:00:00 7,3 4,8 24 13 - - W 997,1 28 0 0,0
12.11.2019 16:00:00 7,3 4,6 34 18 48 26 W 996,7 10 0 0,0
12.11.2019 15:00:00 6,5 4,9 21 11 - - WZW 996,8 10 0 0,2
12.11.2019 14:00:00 6,5 4,3 29 16 48 26 ZW 997,0 14 0 0,6
12.11.2019 13:00:00 6,0 3,6 35 19 54 29 WZW 997,5 2,0 0 1,0
12.11.2019 12:00:00 8,4 1,6 31 17 - - WZW 997,6 10 24 0,0
12.11.2019 11:00:00 8,5 1,9 28 15 - - WZW 998,3 10 60 0,0
12.11.2019 10:00:00 7,0 2,1 28 15 - - WZW 998,7 30 60 0,0
12.11.2019 09:00:00 5,5 1,8 18 10 - - WZW 999,2 10 18 0,0
12.11.2019 08:00:00 3,9 1,4 15 8 - - ZZW 999,5 10 0 0,0
12.11.2019 07:00:00 3,7 1,5 15 8 - - WZW 999,4 10 0 0,0
12.11.2019 06:00:00 3,4 1,3 11 6 - - ZW 999,9 10 0 0,0
12.11.2019 05:00:00 4,1 1,6 18 10 - - WZW 1000,0 10 0 0,0
12.11.2019 04:00:00 4,4 2,0 16 9 - - W 1000,1 10 0 0,0
12.11.2019 03:00:00 4,2 2,0 16 9 - - WZW 1000,3 10 0 0,0
12.11.2019 02:00:00 5,0 2,2 16 9 - - WZW 1000,8 10 0 0,0
12.11.2019 01:00:00 4,8 2,5 16 9 - - WZW 1001,2 10 0 0,0
12.11.2019 00:00:00 4,7 2,6 15 8 - - WZW 1001,6 10 - 0,0
11.11.2019 23:00:00 5,0 2,4 21 11 - - ZW 1001,8 10 0 0,0
11.11.2019 22:00:00 4,8 2,3 16 9 - - ZW 1001,7 10 0 0,0
11.11.2019 21:00:00 5,4 2,3 21 11 - - WZW 1002,1 21 0 0,0
11.11.2019 20:00:00 6,0 1,9 22 12 - - WZW 1002,0 25 0 0,0
11.11.2019 19:00:00 6,4 2,0 24 13 - - W 1002,2 27 0 0,0
11.11.2019 18:00:00 7,0 1,9 18 10 - - WZW 1002,1 10 0 0,0
11.11.2019 17:00:00 7,7 2,2 18 10 - - W 1001,9 10 0 0,0
11.11.2019 16:00:00 8,8 2,5 24 13 - - W 1001,3 35 0 0,0
11.11.2019 15:00:00 9,1 2,9 22 12 - - W 1001,3 10 6 0,0
11.11.2019 14:00:00 9,7 2,8 24 13 48 26 W 1001,4 10 18 0,0
11.11.2019 13:00:00 9,6 2,7 28 15 - - WNW 1001,6 10 54 0,0
11.11.2019 12:00:00 8,8 3,4 28 15 - - WNW 1001,6 10 36 0,0
11.11.2019 11:00:00 8,4 3,8 24 13 - - W 1001,8 40 24 0,0
11.11.2019 10:00:00 7,7 3,9 28 15 - - W 1001,6 10 48 0,0
11.11.2019 09:00:00 6,5 3,9 21 11 - - W 1001,2 10 18 0,0
11.11.2019 08:00:00 6,1 3,6 22 12 - - W 1001,2 10 0 0,0
11.11.2019 07:00:00 7,8 4,2 22 12 - - WNW 1000,4 10 0 0,0
11.11.2019 06:00:00 8,0 7,4 15 8 - - ZZW 999,7 10 0 0,2
11.11.2019 05:00:00 7,6 7,0 18 10 - - Z 1001,0 10 0 1,4
11.11.2019 04:00:00 7,4 6,7 11 6 - - Z 1002,6 9 0 0,6
11.11.2019 03:00:00 6,6 5,4 13 7 - - Z 1004,1 10 0 0,2
11.11.2019 02:00:00 6,2 4,6 11 6 - - ZZO 1005,8 10 0 0,0
11.11.2019 01:00:00 5,7 4,6 9 5 - - ZO 1007,8 10 0 0,0
11.11.2019 00:00:00 5,6 3,9 4 2 - - - 1009,6 10 - 0,0
10.11.2019 23:00:00 6,0 4,0 15 8 - - ZZO 1010,2 15 0 0,0
10.11.2019 22:00:00 6,6 4,1 11 6 - - Z 1011,9 10 0 0,0
10.11.2019 21:00:00 6,0 3,8 8 4 - - ZW 1012,4 10 0 0,0
10.11.2019 20:00:00 6,3 3,8 8 4 - - ZZO 1012,6 9 0 0,0
10.11.2019 19:00:00 4,9 2,7 5 3 - - OZO 1012,7 10 0 0,0
10.11.2019 18:00:00 6,8 4,0 2 1 - - OZO 1013,9 10 0 0,0
10.11.2019 17:00:00 8,1 4,4 4 2 - - N 1014,3 10 0 0,0
10.11.2019 16:00:00 9,5 3,4 5 3 - - - 1014,7 10 30 0,0
10.11.2019 15:00:00 10,2 3,9 9 5 - - NNO 1014,1 27 42 0,0
10.11.2019 14:00:00 11,0 4,0 13 7 - - ONO 1013,8 10 48 0,0
10.11.2019 13:00:00 10,4 4,5 11 6 - - NO 1013,8 10 48 0,0
10.11.2019 12:00:00 9,5 4,8 11 6 - - NNO 1013,7 10 60 0,0
10.11.2019 11:00:00 8,7 4,5 13 7 - - NNO 1013,7 35 60 0,0
10.11.2019 10:00:00 7,4 4,1 9 5 - - NNO 1013,0 40 60 0,0
10.11.2019 09:00:00 6,6 3,9 8 4 - - NO 1012,3 10 18 0,0
10.11.2019 08:00:00 5,9 4,1 8 4 - - NNO 1011,2 10 0 0,0
10.11.2019 07:00:00 6,5 5,1 9 5 - - NO 1009,9 28 0 0,2
10.11.2019 06:00:00 6,6 5,6 15 8 - - NO 1008,4 17 0 0,4
10.11.2019 05:00:00 6,9 6,2 13 7 - - NO 1007,3 6 0 0,2
10.11.2019 04:00:00 7,3 6,5 13 7 - - ONO 1006,0 9 0 0,2
10.11.2019 03:00:00 7,5 6,3 16 9 - - ONO 1004,8 10 0 0,0
10.11.2019 02:00:00 7,7 7,0 13 7 - - ONO 1003,8 35 0 0,0
10.11.2019 01:00:00 6,1 5,3 5 3 - - O 1003,0 8 0 0,0
10.11.2019 00:00:00 6,6 5,9 9 5 - - OZO 1002,3 8 - 0,0
09.11.2019 23:00:00 6,8 6,4 11 6 - - OZO 1001,4 9 0 0,0
09.11.2019 22:00:00 7,3 7,0 16 9 - - OZO 1000,7 2,3 0 0,2
09.11.2019 21:00:00 7,4 6,7 18 10 - - O 1000,1 13 0 0,0
09.11.2019 20:00:00 7,3 6,6 18 10 - - O 1000,1 7 0 1,0
09.11.2019 19:00:00 7,1 6,7 18 10 - - O 1000,7 8 0 0,8
09.11.2019 18:00:00 6,9 6,6 16 9 - - O 1001,2 8 0 1,6
09.11.2019 17:00:00 6,7 6,3 16 9 - - O 1001,4 4,4 0 2,6
09.11.2019 16:00:00 6,5 6,0 15 8 - - O 1001,8 7 0 2,0
09.11.2019 15:00:00 6,5 5,8 16 9 - - O 1002,5 8 0 2,0
09.11.2019 14:00:00 6,6 5,5 13 7 - - O 1003,5 7 0 1,2
09.11.2019 13:00:00 7,2 4,6 13 7 - - OZO 1004,5 10 0 0,0
09.11.2019 12:00:00 6,9 4,4 13 7 - - OZO 1005,2 10 0 0,0
09.11.2019 11:00:00 4,7 4,2 9 5 - - O 1006,6 7 6 0,0
09.11.2019 10:00:00 2,9 2,8 8 4 - - O 1007,8 2,2 6 0,0
09.11.2019 09:00:00 1,8 1,7 4 2 - - - 1008,7 1,2 12 0,0
09.11.2019 08:00:00 1,2 1,0 5 3 - - - 1009,3 0,7 0 0,0
09.11.2019 07:00:00 0,7 0,4 4 2 - - ZO 1009,9 2,9 0 0,0
09.11.2019 06:00:00 1,0 0,6 2 1 - - - 1010,3 3,1 0 0,0
09.11.2019 05:00:00 1,8 1,6 4 2 - - W 1010,7 5 0 0,0
09.11.2019 04:00:00 1,9 1,4 5 3 - - W 1011,0 7 0 0,0
09.11.2019 03:00:00 2,3 1,5 8 4 - - W 1011,8 7 0 0,0
09.11.2019 02:00:00 3,0 2,0 5 3 - - WNW 1011,8 9 0 0,0
09.11.2019 01:00:00 4,0 2,9 11 6 - - W 1011,9 16 0 0,0
09.11.2019 00:00:00 4,5 3,3 5 3 - - - 1011,8 10 - 0,0
08.11.2019 23:00:00 4,7 3,5 8 4 - - W 1012,0 18 0 0,2
08.11.2019 22:00:00 5,6 4,0 11 6 - - WNW 1011,6 10 0 0,0
08.11.2019 21:00:00 6,0 3,7 9 5 - - NW 1011,7 10 0 0,0
08.11.2019 20:00:00 6,7 4,3 8 4 - - NW 1011,3 18 0 0,0
08.11.2019 19:00:00 6,7 3,7 9 5 - - NW 1010,8 10 0 0,0
08.11.2019 18:00:00 7,0 3,1 8 4 - - WNW 1010,4 10 0 0,0
08.11.2019 17:00:00 7,8 2,8 11 6 - - NW 1009,9 10 0 0,0
08.11.2019 16:00:00 8,1 3,5 11 6 - - NW 1009,2 10 0 0,0
08.11.2019 15:00:00 8,6 3,9 13 7 - - NNW 1008,7 35 0 0,0
08.11.2019 14:00:00 8,4 4,8 13 7 - - NNW 1007,8 30 0 0,0
08.11.2019 13:00:00 7,7 5,5 9 5 - - NNW 1007,5 10 0 0,0
08.11.2019 12:00:00 6,9 6,1 5 3 - - NNW 1007,2 9 0 0,0
08.11.2019 11:00:00 5,3 5,3 5 3 - - NW 1007,0 6 0 0,0
08.11.2019 10:00:00 3,7 3,7 5 3 - - NO 1006,4 0,3 6 0,0
08.11.2019 09:00:00 1,5 1,3 5 3 - - - 1005,6 0,9 0 0,0
08.11.2019 08:00:00 0,9 0,8 8 4 - - WNW 1004,8 9 0 0,0
08.11.2019 07:00:00 1,0 1,0 2 1 - - W 1003,6 10 0 0,0
08.11.2019 06:00:00 0,6 0,5 2 1 - - - 1002,6 0,4 0 0,0
08.11.2019 05:00:00 -0,2 -0,7 4 2 - - W 1001,9 8 0 0,0
08.11.2019 04:00:00 0,9 0,6 4 2 - - WNW 1001,0 6 0 0,0
08.11.2019 03:00:00 0,6 -0,1 2 1 - - - 1000,2 8 0 0,0
08.11.2019 02:00:00 1,9 1,5 4 2 - - NNW 999,8 9 0 0,0
08.11.2019 01:00:00 2,6 2,3 0 0 - - N 999,2 17 0 0,0
08.11.2019 00:00:00 3,5 2,4 2 1 - - - 998,7 10 - 0,0
07.11.2019 23:00:00 3,9 2,9 2 1 - - ZZW 998,2 10 0 0,0
07.11.2019 22:00:00 5,2 3,4 4 2 - - - 997,8 10 0 0,0
07.11.2019 21:00:00 5,4 3,0 9 5 - - ZZW 997,1 10 0 0,0

tt = temperatuur
td = dauwpunt
ff = windsnelheid
fx = windstoten
dd = windrichting
ppp = luchtdruk
vv = zicht
sd = Zonneschijnduur
rr = neerslag

Weerstations in de omgeving